[[{"header":{"parameterUnit":"m.s-1","parameterCategory":1,"la1":30.2991,"la2":30.254,"lo1":-89.0895,"lo2":-89.0444,"dy":0.0017,"dx":0.0017,"nx":28,"ny":28,"refTime":"2025-04-15T09:00:00:Z","depth":0,"parameterNumber":2,"parameterNumberName":"U-component_of_WINDS"},"data":[0,0,0,0,0,0,0,0,0,0,0,0,0,0,0,0,0,0,0,0,0,0,0,0,0,0,0,0,0,0,0,0,0,0,0,0,0,0,0,0,0,0,0,0,0,0,0,0,0,0,0,0,0,0,0,0,0,0,-0.6762,-0.6761,0,-0.6709,-0.6709,-0.6708,-0.6664,-0.6663,-0.6663,-0.6662,-0.6609,-0.6608,-0.6607,0,0,0,0,0,0,0,0,0,0,0,0,0,-0.6821,-0.682,-0.6762,-0.6761,-0.676,-0.671,-0.6709,-0.6708,-0.6664,-0.6663,-0.6663,-0.6662,-0.6609,-0.6608,-0.6607,0,0,0,0,0,0,0,0,0,0,0,0,0,-0.6784,-0.6819,-0.6762,-0.6732,-0.6729,-0.671,-0.6709,-0.6708,-0.6664,-0.6663,-0.6663,-0.6662,-0.6609,-0.6608,-0.6606,-0.6612,0,0,-0.6602,-0.6601,0,0,0,0,0,0,0,0,-0.6787,-0.6782,-0.6737,-0.6734,-0.6731,-0.6692,-0.671,-0.6676,-0.6664,-0.6689,-0.6662,-0.6661,-0.6637,-0.6633,-0.6625,-0.661,-0.6607,-0.6602,-0.6601,-0.66,-0.66,0,0,0,0,0,0,0,-0.6789,-0.6784,-0.6741,-0.6737,-0.6733,-0.6721,-0.6715,-0.6703,-0.6668,-0.6686,-0.6683,-0.6678,-0.6635,-0.6627,-0.6623,-0.6606,-0.6602,-0.66,-0.66,-0.6599,-0.659,-0.6591,0,0,0,0,0,0,-0.6796,-0.6787,-0.6743,-0.6739,-0.6757,-0.672,-0.6714,-0.6705,-0.6668,-0.6661,-0.6678,-0.6676,-0.6629,-0.6625,-0.6621,-0.6624,-0.66,-0.6599,-0.6598,-0.6589,-0.659,-0.6591,0,0,0,0,0,0,-0.6798,-0.6793,-0.6745,-0.6762,-0.6755,-0.672,-0.6711,-0.6705,-0.6696,-0.6661,-0.6655,-0.6676,-0.6629,-0.6623,-0.6614,-0.6622,-0.6598,-0.6597,-0.6589,-0.659,-0.6591,-0.663,0,0,0,0,0,0,-0.68,-0.6794,-0.6796,-0.6762,-0.6754,-0.6739,-0.6712,-0.6704,-0.6694,-0.669,-0.6658,-0.6652,-0.6628,-0.6617,-0.6613,-0.6619,-0.6596,-0.6588,-0.6589,-0.659,-0.6628,-0.6633,-0.6636,0,0,0,0,0,-0.6802,-0.681,-0.6797,-0.6792,-0.6757,-0.674,-0.6735,-0.6707,-0.6695,-0.6696,-0.6673,-0.6653,-0.6621,-0.6616,-0.6611,-0.6617,-0.6587,-0.6589,-0.659,-0.6626,-0.6632,-0.6636,0,0,0,0,0,0,-0.6846,-0.6805,-0.679,-0.6787,-0.6767,-0.6732,-0.6734,-0.6714,-0.6698,-0.6695,-0.6661,-0.6654,-0.6648,-0.6631,-0.6626,-0.6619,-0.6601,-0.6602,-0.6631,-0.6635,-0.6639,-0.6643,-0.6595,0,0,0,0,0,-0.6855,-0.6845,-0.681,-0.6811,-0.6802,-0.677,-0.6761,-0.6741,-0.6719,-0.6711,-0.6687,-0.6666,-0.6651,-0.6642,-0.6627,-0.6625,-0.6617,-0.6627,-0.6631,-0.6634,-0.6635,-0.6631,-0.6635,-0.6596,-0.6596,-0.6596,0,0,-0.6875,-0.6851,-0.6847,-0.6819,-0.6801,-0.6791,-0.6763,-0.6754,-0.6745,-0.6709,-0.6699,-0.6681,-0.6655,-0.6649,-0.6645,-0.6635,-0.6644,-0.6636,-0.6639,-0.6638,-0.6633,-0.6637,-0.664,-0.6597,-0.6597,-0.6596,0,0,-0.6904,-0.6886,-0.6884,-0.6866,-0.6839,-0.6818,-0.6817,-0.6785,-0.6771,-0.676,-0.6732,-0.6721,-0.6697,-0.6679,-0.6666,-0.6686,-0.6666,-0.6682,-0.6703,-0.67,-0.6703,-0.6705,-0.6711,-0.6714,-0.6683,-0.6683,-0.6683,0,-0.6932,-0.6916,-0.6885,-0.6877,-0.6865,-0.6831,-0.6828,-0.6812,-0.6782,-0.6774,-0.6763,-0.673,-0.671,-0.6699,-0.6703,-0.6695,-0.6692,-0.6686,-0.6705,-0.6707,-0.6709,-0.6714,-0.6717,-0.6685,-0.6685,-0.6685,-0.6685,0,-0.695,-0.6939,-0.694,-0.6911,-0.6899,-0.6893,-0.6861,-0.6853,-0.6833,-0.6812,-0.68,-0.6775,-0.6752,-0.6748,-0.673,-0.6733,-0.6728,-0.6711,-0.6692,-0.6715,-0.6719,-0.6721,-0.6688,-0.6688,-0.6687,-0.6687,0,0,-0.7007,-0.696,-0.6961,-0.6946,-0.6913,-0.6903,-0.6895,-0.6873,-0.6866,-0.6845,-0.6837,-0.6816,-0.68,-0.6786,-0.6764,-0.6761,-0.6777,-0.6745,-0.6743,-0.6751,-0.6777,-0.6789,-0.6792,-0.6763,-0.6763,-0.6763,-0.6779,0,-0.7031,-0.7015,-0.6987,-0.698,-0.6968,-0.6935,-0.6927,-0.6905,-0.6885,-0.6871,-0.6848,-0.6833,-0.6814,-0.6805,-0.68,-0.6776,-0.6781,-0.6774,-0.6753,-0.6753,-0.6761,-0.6794,-0.6808,-0.6824,-0.678,-0.6781,-0.6781,0,-0.7057,-0.7038,-0.703,-0.6995,-0.6989,-0.6983,-0.696,-0.6947,-0.6921,-0.6906,-0.6889,-0.6865,-0.6854,-0.6836,-0.6818,-0.6814,-0.6804,-0.679,-0.679,-0.6787,-0.6768,-0.6791,-0.6829,-0.6831,-0.6783,-0.6783,-0.6783,0,-0.7098,-0.707,-0.7061,-0.705,-0.701,-0.7006,-0.6989,-0.6962,-0.695,-0.6929,-0.692,-0.6898,-0.6886,-0.6869,-0.6839,-0.683,-0.6824,-0.6805,-0.681,-0.6811,-0.6811,-0.6811,-0.6846,-0.6805,-0.6805,-0.6805,-0.6805,0,-0.7128,-0.7124,-0.7079,-0.7073,-0.7067,-0.7034,-0.7028,-0.7008,-0.6984,-0.6972,-0.6942,-0.6932,-0.6894,-0.6879,-0.6855,-0.6843,-0.6838,-0.6824,-0.6818,-0.6827,-0.6829,-0.6819,-0.6817,-0.6806,-0.6805,-0.6805,-0.6805,0,-0.7173,-0.7143,-0.7131,-0.7093,-0.7084,-0.7081,-0.7048,-0.704,-0.7017,-0.7003,-0.6998,-0.6962,-0.6942,-0.691,-0.6882,-0.6866,-0.6858,-0.6848,-0.6867,-0.6863,-0.687,-0.6869,-0.69,-0.6901,-0.686,-0.6861,-0.6861,0,-0.7194,-0.719,-0.7151,-0.7142,-0.7126,-0.7111,-0.7098,-0.7064,-0.7052,-0.702,-0.7016,-0.6994,-0.6974,-0.6944,-0.6915,-0.6892,-0.6881,-0.6893,-0.6877,-0.6885,-0.688,-0.688,-0.6879,-0.6897,-0.6897,-0.6898,-0.6898,0,-0.7233,-0.7218,-0.7201,-0.7178,-0.7163,-0.7143,-0.7122,-0.7116,-0.7077,-0.7064,-0.7044,-0.7029,-0.6998,-0.6976,-0.6949,-0.693,-0.6907,-0.6903,-0.6903,-0.6912,-0.6923,-0.6916,-0.6876,-0.6903,-0.6902,-0.6902,-0.6902,-0.6902,-0.7266,-0.726,-0.7231,-0.7213,-0.7193,-0.7173,-0.7164,-0.7139,-0.7121,-0.7094,-0.7075,-0.7055,-0.7027,-0.6987,-0.697,-0.6953,-0.6943,-0.6943,-0.6943,-0.6943,-0.6946,-0.6926,-0.6948,-0.6948,-0.6947,-0.6947,-0.6947,0,-0.7303,-0.7282,-0.7265,-0.7236,-0.7221,-0.72,-0.7175,-0.7163,-0.7146,-0.7122,-0.7103,-0.7078,-0.7056,-0.7024,-0.6999,-0.6991,-0.698,-0.6986,-0.6986,-0.6981,-0.6957,-0.6959,-0.6995,-0.6995,-0.6995,-0.6995,-0.6995,-0.6995,-0.732,-0.7308,-0.7289,-0.7267,-0.7246,-0.7227,-0.7214,-0.7195,-0.7175,-0.7148,-0.713,-0.7109,-0.708,-0.7053,-0.7031,-0.7022,-0.7013,-0.7022,-0.701,-0.6988,-0.6983,-0.6979,-0.6981,-0.7021,-0.7021,-0.7036,-0.7036,-0.7036]},{"header":{"parameterUnit":"m.s-1","parameterCategory":1,"la1":30.2991,"la2":30.254,"lo1":-89.0895,"lo2":-89.0444,"dy":0.0017,"dx":0.0017,"nx":28,"ny":28,"refTime":"2025-04-15T09:00:00:Z","depth":0,"parameterNumber":3,"parameterNumberName":"V-component_of_WINDS"},"data":[0,0,0,0,0,0,0,0,0,0,0,0,0,0,0,0,0,0,0,0,0,0,0,0,0,0,0,0,0,0,0,0,0,0,0,0,0,0,0,0,0,0,0,0,0,0,0,0,0,0,0,0,0,0,0,0,0,0,-4.5018,-4.5018,0,-4.5049,-4.5049,-4.5049,-4.5073,-4.5073,-4.5074,-4.5074,-4.5102,-4.5102,-4.5103,0,0,0,0,0,0,0,0,0,0,0,0,0,-4.4977,-4.4978,-4.5018,-4.5018,-4.5019,-4.5049,-4.5049,-4.505,-4.5073,-4.5073,-4.5074,-4.5074,-4.5102,-4.5102,-4.5103,0,0,0,0,0,0,0,0,0,0,0,0,0,-4.5,-4.4978,-4.5018,-4.5034,-4.5036,-4.5049,-4.5049,-4.505,-4.5073,-4.5073,-4.5074,-4.5074,-4.5101,-4.5102,-4.5103,-4.5101,0,0,-4.5105,-4.5106,0,0,0,0,0,0,0,0,-4.4999,-4.5001,-4.5031,-4.5033,-4.5035,-4.5058,-4.5045,-4.5067,-4.5073,-4.5059,-4.5074,-4.5074,-4.5087,-4.5089,-4.5093,-4.5102,-4.5103,-4.5105,-4.5106,-4.5106,-4.5106,0,0,0,0,0,0,0,-4.4997,-4.5,-4.503,-4.5032,-4.5034,-4.5039,-4.5043,-4.5049,-4.507,-4.506,-4.5062,-4.5065,-4.5088,-4.5093,-4.5094,-4.5104,-4.5105,-4.5106,-4.5107,-4.5107,-4.5114,-4.5113,0,0,0,0,0,0,-4.4993,-4.4999,-4.5029,-4.5031,-4.5017,-4.504,-4.5044,-4.505,-4.507,-4.5074,-4.5065,-4.5066,-4.5091,-4.5093,-4.5095,-4.5095,-4.5106,-4.5107,-4.5107,-4.5114,-4.5114,-4.5113,0,0,0,0,0,0,-4.4992,-4.4996,-4.5028,-4.5015,-4.502,-4.504,-4.5047,-4.505,-4.5055,-4.5074,-4.5078,-4.5067,-4.5092,-4.5094,-4.51,-4.5096,-4.5107,-4.5108,-4.5114,-4.5114,-4.5114,-4.5093,0,0,0,0,0,0,-4.4991,-4.4995,-4.4995,-4.5015,-4.502,-4.5032,-4.5047,-4.5051,-4.5057,-4.5059,-4.5076,-4.508,-4.5092,-4.5099,-4.5101,-4.5097,-4.5109,-4.5115,-4.5114,-4.5114,-4.5094,-4.5092,-4.5091,0,0,0,0,0,-4.499,-4.4987,-4.4995,-4.4998,-4.5021,-4.5032,-4.5035,-4.505,-4.5057,-4.5056,-4.5069,-4.5079,-4.5097,-4.5099,-4.5102,-4.5098,-4.5115,-4.5114,-4.5114,-4.5095,-4.5093,-4.5091,0,0,0,0,0,0,-4.4963,-4.4989,-4.4999,-4.5002,-4.5015,-4.5036,-4.5035,-4.5047,-4.5056,-4.5058,-4.5076,-4.5079,-4.5083,-4.5091,-4.5094,-4.5098,-4.5107,-4.5107,-4.5092,-4.509,-4.5088,-4.5085,-4.5109,0,0,0,0,0,-4.4958,-4.4966,-4.4988,-4.4989,-4.4996,-4.5015,-4.502,-4.5031,-4.5044,-4.5049,-4.5062,-4.5073,-4.5082,-4.5087,-4.5095,-4.5097,-4.5101,-4.5096,-4.5094,-4.5092,-4.5091,-4.5094,-4.5092,-4.5111,-4.5111,-4.5111,0,0,-4.4947,-4.4962,-4.4966,-4.4985,-4.4996,-4.5003,-4.5019,-4.5025,-4.5031,-4.505,-4.5056,-4.5066,-4.508,-4.5084,-4.5086,-4.5091,-4.5087,-4.5091,-4.509,-4.509,-4.5093,-4.5091,-4.5089,-4.5111,-4.5111,-4.5111,0,0,-4.493,-4.4943,-4.4946,-4.4958,-4.4975,-4.4988,-4.4989,-4.5009,-4.5017,-4.5024,-4.5039,-4.5046,-4.506,-4.5069,-4.5076,-4.5067,-4.5077,-4.5069,-4.5058,-4.506,-4.5059,-4.5057,-4.5054,-4.5053,-4.5069,-4.5069,-4.5069,0,-4.4913,-4.4926,-4.4945,-4.4952,-4.496,-4.4981,-4.4984,-4.4994,-4.5012,-4.5017,-4.5023,-4.5042,-4.5053,-4.506,-4.5058,-4.5063,-4.5064,-4.5066,-4.5058,-4.5057,-4.5056,-4.5053,-4.5051,-4.5068,-4.5068,-4.5068,-4.5068,0,-4.4905,-4.4914,-4.4914,-4.4934,-4.4942,-4.4947,-4.4967,-4.4973,-4.4984,-4.4997,-4.5005,-4.5019,-4.5032,-4.5034,-4.5044,-4.5043,-4.5046,-4.5054,-4.5063,-4.5052,-4.505,-4.5049,-4.5066,-4.5066,-4.5067,-4.5067,0,0,-4.4868,-4.4903,-4.4902,-4.4912,-4.4935,-4.4941,-4.4948,-4.4962,-4.4967,-4.498,-4.4985,-4.4998,-4.5007,-4.5015,-4.5027,-4.5029,-4.5021,-4.5037,-4.5038,-4.5033,-4.5021,-4.5013,-4.5012,-4.5028,-4.5028,-4.5028,-4.5019,0,-4.4855,-4.4868,-4.4888,-4.4894,-4.4903,-4.4925,-4.493,-4.4944,-4.4957,-4.4966,-4.4979,-4.4988,-4.4999,-4.5004,-4.5008,-4.5021,-4.5018,-4.5022,-4.5033,-4.5033,-4.5027,-4.501,-4.5002,-4.4993,-4.5018,-4.5018,-4.5018,0,-4.4839,-4.4854,-4.4862,-4.4886,-4.4891,-4.4895,-4.4911,-4.492,-4.4937,-4.4946,-4.4956,-4.497,-4.4978,-4.4987,-4.4998,-4.5,-4.5006,-4.5014,-4.5014,-4.5014,-4.5024,-4.5009,-4.499,-4.4988,-4.5017,-4.5017,-4.5017,0,-4.4812,-4.4834,-4.4842,-4.485,-4.4878,-4.4881,-4.4893,-4.4911,-4.4919,-4.4932,-4.4938,-4.4952,-4.4959,-4.4969,-4.4986,-4.4991,-4.4995,-4.5006,-4.5002,-4.5001,-4.5,-4.5,-4.4981,-4.5006,-4.5006,-4.5006,-4.5006,0,-4.4793,-4.4797,-4.483,-4.4835,-4.4841,-4.4864,-4.4868,-4.4882,-4.4898,-4.4906,-4.4925,-4.4931,-4.4954,-4.4963,-4.4977,-4.4984,-4.4987,-4.4994,-4.4997,-4.4992,-4.4991,-4.4995,-4.4995,-4.5005,-4.5005,-4.5005,-4.5005,0,-4.4762,-4.4785,-4.4795,-4.4823,-4.483,-4.4833,-4.4856,-4.4861,-4.4877,-4.4886,-4.489,-4.4913,-4.4925,-4.4945,-4.4961,-4.4971,-4.4975,-4.4981,-4.4969,-4.4971,-4.4967,-4.4966,-4.4948,-4.4947,-4.4973,-4.4973,-4.4973,0,-4.4748,-4.4752,-4.4782,-4.4789,-4.4801,-4.4813,-4.4822,-4.4846,-4.4854,-4.4876,-4.4879,-4.4893,-4.4905,-4.4924,-4.4941,-4.4955,-4.4961,-4.4954,-4.4963,-4.4958,-4.496,-4.496,-4.496,-4.4951,-4.4951,-4.495,-4.495,0,-4.4721,-4.4733,-4.4746,-4.4765,-4.4776,-4.4791,-4.4806,-4.4811,-4.4838,-4.4847,-4.4861,-4.4871,-4.489,-4.4904,-4.4921,-4.4932,-4.4945,-4.4948,-4.4948,-4.4941,-4.4934,-4.4938,-4.4963,-4.4947,-4.4948,-4.4948,-4.4948,-4.4948,-4.4697,-4.4703,-4.4725,-4.474,-4.4755,-4.477,-4.4778,-4.4796,-4.4808,-4.4827,-4.484,-4.4854,-4.4872,-4.4897,-4.4908,-4.4918,-4.4924,-4.4923,-4.4923,-4.4922,-4.492,-4.4934,-4.4921,-4.4921,-4.4921,-4.4921,-4.4921,0,-4.467,-4.4687,-4.4701,-4.4724,-4.4736,-4.4751,-4.477,-4.4779,-4.4791,-4.4809,-4.4822,-4.4838,-4.4853,-4.4873,-4.4889,-4.4893,-4.49,-4.4896,-4.4896,-4.4898,-4.4914,-4.4913,-4.4891,-4.4891,-4.4891,-4.4891,-4.4891,-4.4891,-4.4657,-4.4668,-4.4683,-4.4702,-4.4718,-4.4733,-4.4742,-4.4757,-4.4771,-4.479,-4.4803,-4.4817,-4.4836,-4.4854,-4.4868,-4.4874,-4.4878,-4.4873,-4.488,-4.4894,-4.4897,-4.4899,-4.4898,-4.4874,-4.4874,-4.4863,-4.4863,-4.4863]}]]